• Processing (Info)

  • MPEC 2009-K43 : 2004 LC2 = 2009 KG3

    The following Minor Planet Electronic Circular may be linked-to from your own Web pages, but must not otherwise be redistributed electronically.

    A form allowing access to any MPEC is at the bottom of this page.


    Read MPEC 2009-K42 Read MPEC 2009-K44


    M.P.E.C. 2009-K43                                Issued 2009 May 25, 05:08 UT
    
         The Minor Planet Electronic Circulars contain information on unusual
             minor planets and routine data on comets.  They are published
       on behalf of Commission 20 of the International Astronomical Union by the
              Minor Planet Center, Smithsonian Astrophysical Observatory,
                              Cambridge, MA 02138, U.S.A.
    
                 Prepared using the Tamkin Foundation Computer Network
    
                                  MPC@CFA.HARVARD.EDU
              URL http://www.cfa.harvard.edu/iau/mpc.html  ISSN 1523-6714
    
                                  2004 LC2 = 2009 KG3
    
                               Revision to MPEC 2004-L35
    
    Orbital elements:
    2004 LC2 = 2009 KG3                                 PHA, Earth MOID = 0.0269 AU
    Epoch 2009 June 18.0 TT = JDT 2455000.5                 MPC
    M 326.73742              (2000.0)            P               Q
    n   0.38699881     Peri.  290.35410     +0.94906500     -0.25181351
    a   1.8649318      Node    84.60541     +0.30925459     +0.85952080
    e   0.7345564      Incl.   10.96589     -0.06030937     +0.44476280
    P   2.55           H   18.7           G   0.15           U   4
    Residuals in seconds of arc
    040611 704  0.0   0.0     040612 704  0.1+  0.1-    040614 379  0.1+  0.6+
    040611 704  0.2-  0.0     040612 704  0.3-  0.0     040615 926  0.3-  0.2-
    040611 704  0.1+  0.1+    040612 704  0.0   0.1+    040615 926  0.1-  0.3-
    040611 704  0.1-  0.2+    040612 704  0.5-  0.3-    040615 926  0.1-  0.1-
    040611 704  0.0   0.1+    040612 704  0.0   0.7-    040616 938  1.2+  0.7-
    040612 620  0.1-  0.2+    040612 704  0.1-  0.1+    040616 938  0.1+  0.8-
    040612 620  0.1+  0.1+    040612 704  0.3-  0.0     040616 938  0.1+  0.0
    040612 620  0.1+  0.2+    040612 926  0.3-  0.0     040616 938  0.4+  0.6+
    040612 J87  0.3+  0.1+    040612 926  0.2-  0.1+    040616 938  0.2+  0.1-
    040612 J87  0.4+  0.1+    040612 926  0.2+  0.1-    040616 938  0.2-  0.1-
    040612 J87  0.4+  0.0     040612 474  0.3+  0.0     040618 H41  0.2-  0.4-
    040612 J87  0.3+  0.1-    040612 474  0.4+  0.1-    040618 H41  0.6+  0.3-
    040612 J87  1.3+  0.2-    040612 E12  0.2-  0.4-    040618 H41  0.5+  0.1-
    040612 J95  0.1+  0.0     040612 E12  0.1+  0.8-    040618 H41  0.6-  0.0
    040612 J95  1.0-  0.5+    040612 E12  0.2+  0.2-    040618 H41  0.7-  0.6+
    040612 J95  0.2-  0.2+    040612 E12  0.5+  1.5-    040618 H41  0.6-  0.3-
    040612 941  1.0+  0.2+    040612 474  0.1+  0.1-    040618 H41  0.2-  0.1+
    040612 941  0.6+  0.2+    040612 474  0.2+  0.1-    040618 H41  0.6+  0.4+
    040612 941  0.4+  0.1+    040612 474  0.1+  0.1-    090524 H36  1.0-  0.1-
    040612 941  0.2+  0.4+    040613 H41  0.7+  0.4+    090524 H36  0.8+  0.2-
    040612 G90  1.1+  0.1+    040613 H41 (2.6-  0.3-)   090524 H36  0.9-  0.3-
    040612 H06  0.3-  0.1+    040613 H41  0.6-  0.2-    090524 H36  0.3+  0.3-
    040612 H06  0.2-  0.1+    040613 H41  0.0   0.2-    090524 H36  0.4+  0.6-
    040612 H06  0.0   0.0     040613 H41  0.1-  0.5+    090524 H36  0.3-  0.3-
    040612 G90  1.4+  0.0     040613 H41  0.2+  0.1-    090524 G96  0.3-  0.1+
    040612 G90  1.4+  0.1-    040613 H41  0.0   0.1+    090524 G96  0.3-  0.1+
    040612 651  0.2-  0.2-    040613 H41  0.4-  0.1+    090524 611  0.5+  0.2-
    040612 651  0.1-  0.3-    040613 H41  1.9-  0.9+    090524 B04  0.2+  0.1-
    040612 651  0.0   0.0     040613 926  0.1-  0.1+    090524 611  0.2-  0.4+
    040612 704  0.3-  0.3-    040613 926  0.4-  0.2+    090524 B04  0.4+  0.4+
    040612 704  0.2-  0.1+    040613 926  0.2+  0.0     090524 B04  0.2+  0.3+
    040612 704  0.0   0.1-    040614 379  0.7+  0.7+
    
    Ephemeris:
    2004 LC2                 a,e,i = 1.86, 0.73, 11                  q = 0.4950
    Date    TT    R. A. (2000) Decl.     Delta      r     Elong.  Phase     V
    2009 05 19    16 12.42   -10 32.0    0.788    1.791   168.4     6.5    19.9
    2009 05 29    15 46.53   -09 44.0    0.692    1.692   165.2     8.8    19.6
    2009 06 08    15 15.27   -08 59.4    0.625    1.588   150.4    18.4    19.6
    2009 06 18    14 41.81   -08 26.5    0.583    1.479   133.5    29.9    19.7
    2009 06 28    14 09.91   -08 14.5    0.561    1.364   116.7    41.7    19.8
    2009 07 08    13 41.99   -08 28.0    0.550    1.244   100.9    53.4    19.8
    2009 07 18    13 17.90   -09 04.3    0.540    1.117    86.0    65.2    19.9
    2009 07 28    12 55.33   -09 53.6    0.524    0.985    71.7    78.0    20.0
    
    Gareth V. Williams           (C) Copyright 2009 MPC           M.P.E.C. 2009-K43
    

    Read MPEC 2009-K42 Read MPEC 2009-K44


    MPEC number:

    Enter an MPEC number in one of the following forms:

    • 1997-B01 (the full form)
    • J97B01 (the packed version of the full form)
    • B01 (the abbreviated form)